This demonstration page uses our WeatherBlox Daily Observations layout. Learn more.

Left ArrowRight Arrow

41.55636, -103.73856

Hourly Observations for February 27, 2020

Temp ( °F °C ) Dew Point ( °F °C ) Humidity (%) Winds ( mph kmh ) Pressure ( in mb ) Visibility ( mi km ) Precip ( " mm )
12:58 am 00:58 Clear 32 -0.1 18 -7.8 57 57 WNW 17 28 30.32 1027 10 16 N/A
1:58 am 01:58 Partly Cloudy 28 -2.3 17 -8.3 64 64 WSW 7 11 30.34 1027 10 16 N/A
2:58 am 02:58 Mostly Clear 27 -2.7 16 -8.8 63 63 W 8 13 30.35 1028 10 16 N/A
3:58 am 03:58 Mostly Cloudy 28 -2 17 -8.2 63 63 W 10 17 30.34 1028 10 16 N/A
4:58 am 04:58 Mostly Cloudy 26 -3.3 17 -8.3 69 69 W 7 11 30.35 1028 10 16 N/A
5:58 am 05:58 Mostly Cloudy 30 -0.9 19 -7.3 62 62 WNW 13 20 30.28 1026 10 16 N/A
6:58 am 06:58 Cloudy 30 -1.1 20 -6.4 68 68 WNW 8 13 30.28 1025 10 16 N/A
7:58 am 07:58 Cloudy 33 0.4 21 -6.3 61 61 W 10 17 30.23 1024 10 16 N/A
8:58 am 08:58 Cloudy 33 0.8 21 -6.1 60 60 W 12 19 30.21 1023 10 16 N/A
9:58 am 09:58 Mostly Cloudy 33 0.7 21 -6 61 61 NW 10 17 30.21 1023 10 16 N/A
10:58 am 10:58 Cloudy with Light Rain/Snow 33 0.3 27 -2.9 79 79 NW 10 17 30.17 1022 7 11 N/A
11:58 am 11:58 Mostly Cloudy with Light Snow Showers 30 -1.3 29 -1.9 96 96 NW 12 19 30.19 1023 10 16 N/A
12:58 pm 12:58 Mostly Cloudy with Light Snow Showers 29 -1.9 27 -2.7 94 94 WNW 16 26 30.24 1024 10 16 N/A
1:58 pm 13:58 Mostly Cloudy 31 -0.4 24 -4.3 75 75 WNW 20 31 30.26 1025 10 16 N/A
2:58 pm 14:58 Mostly Cloudy 32 undefined 26 -3.6 77 77 NW 20 31 30.30 1026 10 16 N/A
4:57 pm 16:57 Partly Cloudy 33 0.8 24 -4.3 69 69 NNW 26 43 30.32 1027 10 16 N/A
5:56 pm 17:56 Mostly Cloudy 37 2.5 23 -4.8 59 59 NNW 32 52 30.30 1026 10 16 N/A
6:56 pm 18:56 Sunny 39 3.9 22 -5.6 50 50 NNW 30 48 30.30 1026 10 16 N/A
7:56 pm 19:56 Partly Cloudy 41 4.8 19 -7 42 42 NNW 22 35 30.26 1025 10 16 N/A
8:59 pm 20:59 Mostly Sunny 39 4.1 18 -8 41 41 NNW 23 37 30.27 1025 10 16 N/A
9:58 pm 21:58 Mostly Cloudy 41 4.8 17 -8.1 39 39 NNW 22 35 30.26 1025 10 16 N/A
10:58 pm 22:58 Mostly Cloudy 41 4.9 18 -7.6 40 40 NNW 18 30 30.25 1025 10 16 N/A
11:58 pm 23:58 Sunny 39 4 17 -8.2 41 41 NNW 13 20 30.28 1025 10 16 N/A

Powered by AerisWeather